Simultaneous Nadir Overpasses (SNOs) Predictions

Prediction of SNOs between FY3D and NOAA-20 Satellite Orbit:

Table of predicted SNOs for the next 14.0 days since TLE Epoch: 2/24/2024
Index Date (FY3D) Time (FY3D) Lat,Lon (FY3D) SZA (FY3D ) Date (NOAA-20) Time (NOAA-20) Lat,Lon (NOAA-20) SZA (NOAA-20 ) Distance(km) Time Diff (sec)
1 02/24/2024 04:35:48 81.14, 53.55 95.24 02/24/2024 04:36:50 81.14, 53.47 95.21 1.24 62
2 02/24/2024 05:26:34 -81.14,-139.18 84.78 02/24/2024 05:27:35 -81.14,-139.32 84.79 2.44 61
3 02/24/2024 06:17:19 81.14, 28.17 95.21 02/24/2024 06:18:20 81.14, 28.06 95.19 1.88 61
4 02/24/2024 07:08:05 -81.14,-164.56 84.80 02/24/2024 07:09:05 -81.14,-164.74 84.81 3.07 60
5 02/24/2024 07:58:50 81.14, 2.79 95.18 02/24/2024 07:59:50 81.14, 2.65 95.17 2.52 60
6 02/24/2024 08:49:36 -81.14, 170.06 84.83 02/24/2024 08:50:34 -81.13, 170.23 84.89 2.90 58
7 02/24/2024 09:40:21 81.14, -22.59 95.16 02/24/2024 09:41:20 81.14, -22.77 95.15 3.17 59
8 02/24/2024 10:31:07 -81.14, 144.68 84.86 02/24/2024 10:32:04 -81.13, 144.81 84.91 2.27 57
9 02/24/2024 11:21:52 81.14, -47.96 95.13 02/24/2024 11:22:49 81.13, -47.80 95.08 2.81 57
10 02/24/2024 12:12:38 -81.14, 119.31 84.88 02/24/2024 12:13:34 -81.13, 119.40 84.93 1.64 56
11 02/24/2024 13:03:23 81.14, -73.34 95.11 02/24/2024 13:04:19 81.13, -73.22 95.06 2.17 56
12 02/24/2024 13:54:09 -81.14, 93.93 84.91 02/24/2024 13:55:04 -81.13, 93.99 84.95 1.01 55
13 02/24/2024 14:44:54 81.14, -98.72 95.08 02/24/2024 14:45:49 81.13, -98.63 95.04 1.52 55
14 02/24/2024 15:35:40 -81.14, 68.55 84.93 02/24/2024 15:36:34 -81.14, 68.57 84.97 0.39 54
15 02/24/2024 16:26:25 81.14,-124.10 95.05 02/24/2024 16:27:19 81.13,-124.05 95.01 0.88 54
16 02/24/2024 17:17:11 -81.14, 43.17 84.96 02/24/2024 17:18:04 -81.14, 43.16 84.99 0.25 53
17 02/24/2024 18:07:55 81.14,-149.47 95.03 02/24/2024 18:08:48 81.13,-149.46 94.99 0.25 53
18 02/24/2024 18:58:41 -81.14, 17.80 84.99 02/24/2024 18:59:33 -81.14, 17.75 85.01 0.87 52
19 02/24/2024 19:49:26 81.14,-174.85 95.00 02/24/2024 19:50:18 81.14,-174.88 94.97 0.43 52
20 02/24/2024 20:40:12 -81.14, -7.58 85.01 02/24/2024 20:41:03 -81.14, -7.67 85.03 1.50 51
21 02/24/2024 21:30:57 81.14, 159.77 94.97 02/24/2024 21:31:48 81.14, 159.71 94.95 1.07 51
22 02/24/2024 22:21:43 -81.14, -32.96 85.04 02/24/2024 22:22:33 -81.14, -33.08 85.05 2.12 50
23 02/24/2024 23:12:28 81.14, 134.39 94.95 02/24/2024 23:13:18 81.14, 134.29 94.93 1.71 50
24 02/25/2024 00:03:14 -81.14, -58.34 85.07 02/25/2024 00:04:03 -81.14, -58.49 85.07 2.75 49
25 02/25/2024 00:53:59 81.14, 109.01 94.92 02/25/2024 00:54:48 81.14, 108.88 94.91 2.36 49
26 02/25/2024 01:44:45 -81.14, -83.72 85.09 02/25/2024 01:45:32 -81.13, -83.53 85.15 3.22 47
27 02/25/2024 02:35:30 81.14, 83.64 94.90 02/25/2024 02:36:18 81.14, 83.46 94.89 3.00 48
28 02/25/2024 03:26:16 -81.14,-109.09 85.12 02/25/2024 03:27:02 -81.13,-108.94 85.17 2.60 46
29 02/25/2024 04:17:01 81.14, 58.26 94.87 02/25/2024 04:17:47 81.13, 58.43 94.82 2.97 46
30 02/25/2024 05:07:47 -81.14,-134.47 85.14 02/25/2024 05:08:32 -81.13,-134.36 85.19 1.97 45
31 02/25/2024 05:58:32 81.14, 32.88 94.84 02/25/2024 05:59:17 81.13, 33.01 94.80 2.33 45
32 02/25/2024 06:49:18 -81.14,-159.85 85.17 02/25/2024 06:50:02 -81.13,-159.77 85.21 1.35 44
33 02/25/2024 07:40:03 81.14, 7.50 94.82 02/25/2024 07:40:47 81.13, 7.60 94.78 1.68 44
34 02/25/2024 08:30:49 -81.14, 174.77 85.20 02/25/2024 08:31:32 -81.14, 174.81 85.23 0.74 43
35 02/25/2024 09:21:34 81.14, -17.88 94.79 02/25/2024 09:22:17 81.13, -17.82 94.76 1.04 43
36 02/25/2024 10:12:20 -81.14, 149.39 85.22 02/25/2024 10:13:02 -81.14, 149.40 85.25 0.21 42
37 02/25/2024 11:03:05 81.14, -43.25 94.76 02/25/2024 11:03:47 81.14, -43.23 94.74 0.40 42
38 02/25/2024 11:53:51 -81.14, 124.01 85.25 02/25/2024 11:54:32 -81.14, 123.99 85.27 0.57 41
39 02/25/2024 12:44:36 81.14, -68.63 94.74 02/25/2024 12:45:17 81.14, -68.65 94.72 0.25 41
40 02/25/2024 13:35:22 -81.14, 98.64 85.28 02/25/2024 13:36:02 -81.14, 98.57 85.29 1.18 40
41 02/25/2024 14:26:07 81.14, -94.01 94.71 02/25/2024 14:26:47 81.14, -94.06 94.70 0.89 40
42 02/25/2024 15:16:53 -81.14, 73.26 85.30 02/25/2024 15:17:32 -81.14, 73.16 85.31 1.80 39
43 02/25/2024 16:07:38 81.14,-119.39 94.68 02/25/2024 16:08:17 81.14,-119.48 94.68 1.54 39
44 02/25/2024 16:58:24 -81.14, 47.88 85.33 02/25/2024 16:59:02 -81.14, 47.74 85.33 2.42 38
45 02/25/2024 17:49:09 81.14,-144.77 94.66 02/25/2024 17:49:47 81.14,-144.89 94.65 2.18 38
46 02/25/2024 18:39:55 -81.14, 22.50 85.36 02/25/2024 18:40:32 -81.14, 22.33 85.35 3.04 37
47 02/25/2024 19:30:40 81.14,-170.15 94.63 02/25/2024 19:31:17 81.14,-170.31 94.63 2.83 37
48 02/25/2024 20:21:26 -81.14, -2.88 85.38 02/25/2024 20:22:01 -81.13, -2.71 85.43 2.95 35
49 02/25/2024 21:12:11 81.14, 164.48 94.60 02/25/2024 21:12:46 81.13, 164.66 94.56 3.16 35
50 02/25/2024 22:02:57 -81.14, -28.26 85.41 02/25/2024 22:03:31 -81.13, -28.12 85.45 2.33 34
51 02/25/2024 22:53:42 81.14, 139.10 94.58 02/25/2024 22:54:16 81.13, 139.24 94.54 2.51 34
52 02/25/2024 23:44:28 -81.14, -53.64 85.44 02/25/2024 23:45:01 -81.14, -53.54 85.47 1.72 33
53 02/26/2024 00:35:13 81.14, 113.72 94.55 02/26/2024 00:35:46 81.13, 113.83 94.52 1.87 33
54 02/26/2024 01:25:59 -81.14, -79.01 85.46 02/26/2024 01:26:31 -81.14, -78.95 85.49 1.11 32
55 02/26/2024 02:16:44 81.14, 88.34 94.53 02/26/2024 02:17:16 81.13, 88.41 94.50 1.23 32
56 02/26/2024 03:07:30 -81.14,-104.39 85.49 02/26/2024 03:08:01 -81.14,-104.36 85.51 0.56 31
57 02/26/2024 03:58:15 81.14, 62.96 94.50 02/26/2024 03:58:46 81.14, 63.00 94.48 0.60 31
58 02/26/2024 04:49:01 -81.14,-129.77 85.51 02/26/2024 04:49:31 -81.14,-129.78 85.53 0.40 30
59 02/26/2024 05:39:46 81.14, 37.58 94.47 02/26/2024 05:40:16 81.14, 37.58 94.46 0.19 30
60 02/26/2024 06:30:32 -81.14,-155.15 85.54 02/26/2024 06:31:01 -81.14,-155.19 85.55 0.88 29
61 02/26/2024 07:21:17 81.14, 12.20 94.45 02/26/2024 07:21:46 81.14, 12.17 94.44 0.73 29
62 02/26/2024 08:12:03 -81.14, 179.47 85.57 02/26/2024 08:12:31 -81.14, 179.39 85.57 1.48 28
63 02/26/2024 09:02:48 81.14, -13.18 94.42 02/26/2024 09:03:16 81.14, -13.25 94.42 1.36 28
64 02/26/2024 09:53:34 -81.14, 154.09 85.59 02/26/2024 09:54:01 -81.14, 153.98 85.59 2.09 27
65 02/26/2024 10:44:19 81.14, -38.55 94.39 02/26/2024 10:44:46 81.14, -38.67 94.40 2.00 27
66 02/26/2024 11:35:05 -81.14, 128.71 85.62 02/26/2024 11:35:31 -81.14, 128.56 85.61 2.70 26
67 02/26/2024 12:25:50 81.14, -63.93 94.37 02/26/2024 12:26:16 81.14, -64.08 94.37 2.64 26
68 02/26/2024 13:16:35 -81.14, 103.72 85.70 02/26/2024 13:17:00 -81.13, 103.53 85.69 3.31 25
69 02/26/2024 14:07:21 81.14, -89.31 94.34 02/26/2024 14:07:46 81.14, -89.50 94.35 3.28 25
70 02/26/2024 14:58:07 -81.14, 77.95 85.67 02/26/2024 14:58:30 -81.13, 78.11 85.71 2.72 23
71 02/26/2024 15:48:52 81.14,-114.69 94.31 02/26/2024 15:49:15 81.13,-114.53 94.28 2.72 23
72 02/26/2024 16:39:38 -81.14, 52.57 85.70 02/26/2024 16:40:00 -81.14, 52.70 85.73 2.11 22
73 02/26/2024 17:30:23 81.14,-140.07 94.29 02/26/2024 17:30:45 81.13,-139.95 94.26 2.09 22
74 02/26/2024 18:21:09 -81.14, 27.19 85.73 02/26/2024 18:21:30 -81.14, 27.28 85.75 1.52 21
75 02/26/2024 19:11:54 81.14,-165.45 94.26 02/26/2024 19:12:15 81.14,-165.36 94.24 1.46 21
76 02/26/2024 20:02:40 -81.14, 1.81 85.75 02/26/2024 20:03:00 -81.14, 1.87 85.77 0.96 20
77 02/26/2024 20:53:24 81.14, 169.17 94.23 02/26/2024 20:53:44 81.14, 169.22 94.22 0.85 20
78 02/26/2024 21:44:10 -81.14, -23.56 85.78 02/26/2024 21:44:29 -81.14, -23.55 85.79 0.56 19
79 02/26/2024 22:34:55 81.14, 143.79 94.21 02/26/2024 22:35:14 81.14, 143.80 94.20 0.38 19
80 02/26/2024 23:25:41 -81.14, -48.94 85.81 02/26/2024 23:25:59 -81.14, -48.96 85.81 0.69 18
81 02/27/2024 00:16:26 81.14, 118.41 94.18 02/27/2024 00:16:44 81.14, 118.39 94.18 0.62 18
82 02/27/2024 01:07:12 -81.14, -74.32 85.83 02/27/2024 01:07:29 -81.14, -74.38 85.83 1.19 17
83 02/27/2024 01:57:57 81.14, 93.03 94.15 02/27/2024 01:58:14 81.14, 92.97 94.16 1.20 17
84 02/27/2024 02:48:43 -81.13, -99.70 85.86 02/27/2024 02:48:59 -81.14, -99.79 85.85 1.76 16
85 02/27/2024 03:39:28 81.14, 67.65 94.13 02/27/2024 03:39:44 81.14, 67.56 94.14 1.82 16
86 02/27/2024 04:30:13 -81.14,-124.70 85.93 02/27/2024 04:30:28 -81.13,-124.83 85.93 2.32 15
87 02/27/2024 05:20:59 81.14, 42.27 94.10 02/27/2024 05:21:14 81.14, 42.14 94.11 2.45 15
88 02/27/2024 06:11:44 -81.14,-150.08 85.96 02/27/2024 06:11:58 -81.13,-150.24 85.95 2.88 14
89 02/27/2024 07:02:29 81.14, 17.28 94.03 02/27/2024 07:02:43 81.13, 17.10 94.04 3.09 14
90 02/27/2024 07:53:16 -81.13,-175.84 85.94 02/27/2024 07:53:28 -81.14,-175.66 85.97 3.13 12
91 02/27/2024 08:44:01 81.14, -8.49 94.05 02/27/2024 08:44:13 81.13, -8.31 94.02 2.96 12
92 02/27/2024 09:34:47 -81.13, 158.78 85.96 02/27/2024 09:34:58 -81.14, 158.93 85.99 2.53 11
93 02/27/2024 10:25:32 81.14, -33.86 94.02 02/27/2024 10:25:43 81.14, -33.73 94.00 2.33 11
94 02/27/2024 11:16:18 -81.13, 133.40 85.99 02/27/2024 11:16:28 -81.14, 133.51 86.01 1.95 10
95 02/27/2024 12:07:03 81.14, -59.24 94.00 02/27/2024 12:07:13 81.14, -59.14 93.98 1.72 10
96 02/27/2024 12:57:49 -81.13, 108.02 86.02 02/27/2024 12:57:58 -81.14, 108.10 86.03 1.40 9
97 02/27/2024 13:48:34 81.14, -84.62 93.97 02/27/2024 13:48:43 81.14, -84.56 93.96 1.13 9
98 02/27/2024 14:39:20 -81.13, 82.64 86.04 02/27/2024 14:39:28 -81.14, 82.68 86.05 0.93 8
99 02/27/2024 15:30:05 81.14,-110.00 93.94 02/27/2024 15:30:13 81.14,-109.98 93.94 0.65 8
100 02/27/2024 16:20:51 -81.13, 57.26 86.07 02/27/2024 16:20:58 -81.14, 57.26 86.07 0.74 7
101 02/27/2024 17:11:36 81.14,-135.38 93.92 02/27/2024 17:11:43 81.14,-135.39 93.92 0.62 7
102 02/27/2024 18:02:21 -81.14, 32.26 86.15 02/27/2024 18:02:27 -81.13, 32.23 86.15 0.96 6
103 02/27/2024 18:53:07 81.14,-160.76 93.89 02/27/2024 18:53:13 81.14,-160.81 93.89 1.08 6
104 02/27/2024 19:43:52 -81.14, 6.88 86.17 02/27/2024 19:43:57 -81.13, 6.81 86.17 1.35 5
105 02/27/2024 20:34:38 81.14, 173.86 93.86 02/27/2024 20:34:43 81.14, 173.77 93.87 1.66 5
106 02/27/2024 21:25:23 -81.14, -18.50 86.20 02/27/2024 21:25:27 -81.13, -18.60 86.19 1.87 4
107 02/27/2024 22:16:08 81.14, 148.86 93.79 02/27/2024 22:16:12 81.13, 148.74 93.80 2.22 4
108 02/27/2024 23:06:54 -81.14, -43.88 86.23 02/27/2024 23:06:57 -81.14, -44.02 86.21 2.43 3
109 02/27/2024 23:57:39 81.14, 123.48 93.76 02/27/2024 23:57:42 81.13, 123.32 93.78 2.80 3
110 02/28/2024 00:48:25 -81.14, -69.26 86.25 02/28/2024 00:48:27 -81.14, -69.43 86.23 3.02 2
111 02/28/2024 01:39:11 81.14, 97.72 93.78 02/28/2024 01:39:12 81.14, 97.90 93.76 3.22 1
112 02/28/2024 02:29:57 -81.13, -95.02 86.23 02/28/2024 02:29:57 -81.14, -94.85 86.25 2.98 0
113 02/28/2024 03:20:42 81.14, 72.34 93.76 02/28/2024 03:20:42 81.14, 72.49 93.74 2.61 0
114 02/28/2024 04:11:28 -81.13,-120.40 86.26 02/28/2024 04:11:27 -81.14,-120.27 86.27 2.41 1
115 02/28/2024 05:02:13 81.14, 46.96 93.73 02/28/2024 05:02:12 81.14, 47.07 93.72 2.01 1
116 02/28/2024 05:52:59 -81.13,-145.78 86.28 02/28/2024 05:52:57 -81.14,-145.68 86.29 1.86 2
117 02/28/2024 06:43:44 81.14, 21.58 93.70 02/28/2024 06:43:42 81.14, 21.65 93.70 1.44 2
118 02/28/2024 07:34:30 -81.13,-171.16 86.31 02/28/2024 07:34:27 -81.14,-171.10 86.31 1.37 3
119 02/28/2024 08:25:15 81.14, -3.80 93.68 02/28/2024 08:25:12 81.14, -3.76 93.67 0.96 3
120 02/28/2024 09:16:00 -81.14, 163.84 86.39 02/28/2024 09:15:56 -81.13, 163.87 86.39 0.87 4
121 02/28/2024 10:06:46 81.14, -29.19 93.65 02/28/2024 10:06:42 81.14, -29.18 93.65 0.77 4
122 02/28/2024 10:57:31 -81.14, 138.46 86.41 02/28/2024 10:57:26 -81.13, 138.45 86.41 0.62 5
123 02/28/2024 11:48:16 81.14, -54.18 93.57 02/28/2024 11:48:11 81.13, -54.22 93.58 0.95 5
124 02/28/2024 12:39:02 -81.14, 113.08 86.44 02/28/2024 12:38:56 -81.13, 113.03 86.43 0.88 6
125 02/28/2024 13:29:47 81.14, -79.56 93.55 02/28/2024 13:29:41 81.13, -79.63 93.56 1.37 6
126 02/28/2024 14:20:33 -81.14, 87.70 86.47 02/28/2024 14:20:26 -81.13, 87.62 86.45 1.39 7
127 02/28/2024 15:11:18 81.14,-104.94 93.52 02/28/2024 15:11:11 81.13,-105.05 93.54 1.91 7
128 02/28/2024 16:02:04 -81.14, 62.32 86.49 02/28/2024 16:01:56 -81.14, 62.20 86.47 1.96 8
129 02/28/2024 16:52:49 81.14,-130.32 93.49 02/28/2024 16:52:41 81.14,-130.47 93.52 2.50 8
130 02/28/2024 17:43:35 -81.14, 36.94 86.52 02/28/2024 17:43:26 -81.14, 36.79 86.49 2.55 9
131 02/28/2024 18:34:20 81.14,-155.70 93.47 02/28/2024 18:34:11 81.14,-155.88 93.50 3.10 9
132 02/28/2024 19:25:06 -81.14, 11.56 86.55 02/28/2024 19:24:56 -81.14, 11.37 86.52 3.15 10
133 02/28/2024 20:15:52 81.13, 178.53 93.49 02/28/2024 20:15:41 81.14, 178.70 93.47 2.91 11
134 02/28/2024 21:06:38 -81.13, -14.21 86.52 02/28/2024 21:06:26 -81.14, -14.04 86.54 2.90 12
135 02/28/2024 21:57:23 81.13, 153.15 93.46 02/28/2024 21:57:11 81.14, 153.28 93.45 2.32 12
136 02/28/2024 22:48:08 -81.14, -39.21 86.60 02/28/2024 22:47:55 -81.13, -39.08 86.61 2.29 13
137 02/28/2024 23:38:54 81.13, 127.77 93.44 02/28/2024 23:38:41 81.14, 127.87 93.43 1.77 13
138 02/29/2024 00:29:38 -81.14, -64.59 86.63 02/29/2024 00:29:24 -81.13, -64.50 86.63 1.69 14
139 02/29/2024 01:20:23 81.14, 102.77 93.36 02/29/2024 01:20:09 81.13, 102.83 93.36 1.24 14
140 02/29/2024 02:11:09 -81.14, -89.97 86.65 02/29/2024 02:10:54 -81.13, -89.91 86.65 1.10 15
141 02/29/2024 03:01:54 81.14, 77.39 93.33 02/29/2024 03:01:39 81.13, 77.41 93.34 0.74 15
142 02/29/2024 03:52:40 -81.14,-115.35 86.68 02/29/2024 03:52:24 -81.13,-115.33 86.67 0.55 16
143 02/29/2024 04:43:25 81.14, 52.01 93.31 02/29/2024 04:43:09 81.13, 51.99 93.32 0.62 16
144 02/29/2024 05:34:11 -81.14,-140.73 86.71 02/29/2024 05:33:54 -81.13,-140.75 86.70 0.41 17
145 02/29/2024 06:24:56 81.14, 26.63 93.28 02/29/2024 06:24:39 81.13, 26.58 93.29 1.02 17
146 02/29/2024 07:15:42 -81.14,-166.11 86.73 02/29/2024 07:15:24 -81.14,-166.16 86.72 0.89 18
147 02/29/2024 08:06:27 81.14, 1.25 93.25 02/29/2024 08:06:09 81.14, 1.16 93.27 1.58 18
148 02/29/2024 08:57:13 -81.14, 168.51 86.76 02/29/2024 08:56:54 -81.14, 168.42 86.74 1.47 19
149 02/29/2024 09:47:58 81.14, -24.13 93.23 02/29/2024 09:47:39 81.14, -24.26 93.25 2.18 19
150 02/29/2024 10:38:44 -81.14, 143.13 86.79 02/29/2024 10:38:24 -81.14, 143.00 86.76 2.07 20
151 02/29/2024 11:29:29 81.14, -49.51 93.20 02/29/2024 11:29:09 81.14, -49.67 93.23 2.79 20
152 02/29/2024 12:20:15 -81.14, 117.74 86.81 02/29/2024 12:19:54 -81.14, 117.59 86.78 2.68 21
153 02/29/2024 13:11:01 81.13, -75.28 93.22 02/29/2024 13:10:39 81.14, -75.09 93.21 3.24 22
154 02/29/2024 14:01:46 -81.14, 92.36 86.84 02/29/2024 14:01:24 -81.14, 92.17 86.80 3.29 22
155 02/29/2024 14:52:31 81.14,-100.27 93.15 02/29/2024 14:52:08 81.13,-100.13 93.14 2.64 23
156 02/29/2024 15:43:17 -81.14, 66.98 86.87 02/29/2024 15:42:53 -81.13, 67.13 86.88 2.71 24
157 02/29/2024 16:34:02 81.14,-125.65 93.12 02/29/2024 16:33:38 81.13,-125.55 93.12 2.01 24
158 02/29/2024 17:24:48 -81.14, 41.60 86.89 02/29/2024 17:24:23 -81.13, 41.72 86.90 2.09 25
159 02/29/2024 18:15:33 81.14,-151.04 93.09 02/29/2024 18:15:08 81.13,-150.96 93.09 1.39 25
160 02/29/2024 19:06:19 -81.14, 16.22 86.92 02/29/2024 19:05:53 -81.13, 16.30 86.92 1.48 26
161 02/29/2024 19:57:04 81.14,-176.42 93.07 02/29/2024 19:56:38 81.13,-176.38 93.07 0.78 26
162 02/29/2024 20:47:50 -81.14, -9.16 86.95 02/29/2024 20:47:23 -81.13, -9.12 86.94 0.87 27
163 02/29/2024 21:38:35 81.14, 158.20 93.04 02/29/2024 21:38:08 81.13, 158.20 93.05 0.34 27
164 02/29/2024 22:29:21 -81.14, -34.55 86.97 02/29/2024 22:28:53 -81.14, -34.53 86.96 0.26 28
165 02/29/2024 23:20:06 81.14, 132.82 93.01 02/29/2024 23:19:38 81.14, 132.78 93.03 0.64 28
166 03/01/2024 00:10:52 -81.14, -59.93 87.00 03/01/2024 00:10:23 -81.14, -59.95 86.98 0.37 29
167 03/01/2024 01:01:37 81.14, 107.44 92.99 03/01/2024 01:01:08 81.14, 107.37 93.01 1.23 29
168 03/01/2024 01:52:23 -81.14, -85.31 87.03 03/01/2024 01:51:53 -81.14, -85.36 87.00 0.98 30
169 03/01/2024 02:43:08 81.14, 82.06 92.96 03/01/2024 02:42:38 81.14, 81.95 92.99 1.85 30
170 03/01/2024 03:33:54 -81.14,-110.69 87.05 03/01/2024 03:33:23 -81.14,-110.78 87.02 1.59 31
171 03/01/2024 04:24:39 81.14, 56.68 92.93 03/01/2024 04:24:08 81.14, 56.53 92.97 2.48 31
172 03/01/2024 05:15:25 -81.14,-136.07 87.08 03/01/2024 05:14:53 -81.14,-136.20 87.04 2.20 32
173 03/01/2024 06:06:10 81.14, 31.29 92.91 03/01/2024 06:05:38 81.14, 31.11 92.95 3.11 32
174 03/01/2024 06:56:56 -81.14,-161.45 87.11 03/01/2024 06:56:23 -81.14,-161.61 87.06 2.81 33
175 03/01/2024 07:47:41 81.14, 5.91 92.88 03/01/2024 07:47:07 81.13, 6.08 92.87 2.89 34
176 03/01/2024 08:38:27 -81.14, 173.16 87.13 03/01/2024 08:37:52 -81.13, 173.35 87.14 3.17 35
177 03/01/2024 09:29:12 81.14, -19.47 92.85 03/01/2024 09:28:37 81.13, -19.34 92.85 2.26 35
178 03/01/2024 10:19:58 -81.14, 147.78 87.16 03/01/2024 10:19:22 -81.13, 147.93 87.16 2.56 36
179 03/01/2024 11:10:43 81.14, -44.85 92.83 03/01/2024 11:10:07 81.13, -44.76 92.83 1.63 36
180 03/01/2024 12:01:29 -81.14, 122.40 87.19 03/01/2024 12:00:52 -81.13, 122.51 87.18 1.95 37
181 03/01/2024 12:52:14 81.14, -70.23 92.80 03/01/2024 12:51:37 81.14, -70.18 92.81 0.99 37
182 03/01/2024 13:43:00 -81.14, 97.02 87.21 03/01/2024 13:42:22 -81.14, 97.10 87.20 1.35 38
183 03/01/2024 14:33:45 81.14, -95.62 92.77 03/01/2024 14:33:07 81.14, -95.60 92.79 0.36 38
184 03/01/2024 15:24:31 -81.14, 71.64 87.24 03/01/2024 15:23:52 -81.14, 71.68 87.22 0.75 39
185 03/01/2024 16:15:16 81.14,-121.00 92.75 03/01/2024 16:14:37 81.14,-121.01 92.77 0.27 39
186 03/01/2024 17:06:02 -81.14, 46.25 87.27 03/01/2024 17:05:22 -81.14, 46.26 87.24 0.26 40
187 03/01/2024 17:56:47 81.14,-146.38 92.72 03/01/2024 17:56:07 81.14,-146.43 92.75 0.91 40
188 03/01/2024 18:47:33 -81.14, 20.87 87.29 03/01/2024 18:46:52 -81.14, 20.85 87.26 0.56 41
189 03/01/2024 19:38:18 81.14,-171.76 92.69 03/01/2024 19:37:37 81.14,-171.85 92.73 1.54 41
190 03/01/2024 20:29:04 -81.14, -4.51 87.32 03/01/2024 20:28:22 -81.14, -4.57 87.29 1.14 42
191 03/01/2024 21:19:49 81.14, 162.86 92.67 03/01/2024 21:19:07 81.14, 162.73 92.71 2.17 42
192 03/01/2024 22:10:35 -81.14, -29.89 87.35 03/01/2024 22:09:52 -81.14, -29.99 87.31 1.74 43
193 03/01/2024 23:01:20 81.14, 137.47 92.64 03/01/2024 23:00:37 81.14, 137.31 92.69 2.80 43
194 03/01/2024 23:52:06 -81.14, -55.28 87.37 03/01/2024 23:51:22 -81.14, -55.41 87.33 2.35 44
195 03/02/2024 00:42:51 81.14, 112.09 92.61 03/02/2024 00:42:06 81.13, 112.28 92.61 3.19 45
196 03/02/2024 01:33:37 -81.14, -80.66 87.40 03/02/2024 01:32:52 -81.14, -80.82 87.35 2.96 45
197 03/02/2024 02:24:22 81.14, 86.71 92.58 03/02/2024 02:23:36 81.13, 86.86 92.59 2.57 46
198 03/02/2024 03:15:07 -81.14,-106.04 87.43 03/02/2024 03:14:20 -81.14,-105.86 87.43 3.08 47
199 03/02/2024 04:05:52 81.14, 61.33 92.56 03/02/2024 04:05:05 81.14, 61.44 92.57 1.94 47
200 03/02/2024 04:56:38 -81.14,-131.42 87.45 03/02/2024 04:55:50 -81.14,-131.28 87.45 2.48 48
201 03/02/2024 05:47:23 81.14, 35.94 92.53 03/02/2024 05:46:35 81.14, 36.02 92.55 1.32 48
202 03/02/2024 06:38:09 -81.14,-156.81 87.48 03/02/2024 06:37:20 -81.14,-156.70 87.47 1.89 49
203 03/02/2024 07:28:54 81.14, 10.56 92.50 03/02/2024 07:28:05 81.14, 10.60 92.53 0.71 49
204 03/02/2024 08:19:40 -81.14, 177.81 87.51 03/02/2024 08:18:50 -81.14, 177.89 87.49 1.33 50
205 03/02/2024 09:10:25 81.14, -14.82 92.48 03/02/2024 09:09:35 81.14, -14.81 92.51 0.28 50
206 03/02/2024 10:01:11 -81.14, 152.43 87.53 03/02/2024 10:00:20 -81.14, 152.47 87.51 0.82 51
207 03/02/2024 10:51:56 81.14, -40.20 92.45 03/02/2024 10:51:05 81.14, -40.23 92.49 0.67 51
208 03/02/2024 11:42:42 -81.14, 127.05 87.56 03/02/2024 11:41:50 -81.14, 127.05 87.53 0.57 52
209 03/02/2024 12:33:27 81.14, -65.59 92.42 03/02/2024 12:32:35 81.14, -65.65 92.46 1.27 52
210 03/02/2024 13:24:13 -81.14, 101.66 87.59 03/02/2024 13:23:20 -81.14, 101.63 87.55 0.85 53
211 03/02/2024 14:14:58 81.14, -90.97 92.40 03/02/2024 14:14:05 81.14, -91.07 92.44 1.89 53
212 03/02/2024 15:05:44 -81.14, 76.28 87.61 03/02/2024 15:04:50 -81.14, 76.22 87.57 1.37 54
213 03/02/2024 15:56:29 81.14,-116.35 92.37 03/02/2024 15:55:35 81.14,-116.49 92.42 2.51 54
214 03/02/2024 16:47:14 -81.14, 51.28 87.69 03/02/2024 16:46:19 -81.13, 51.18 87.65 1.86 55
215 03/02/2024 17:37:59 81.14,-141.35 92.29 03/02/2024 17:37:04 81.13,-141.53 92.35 3.13 55
216 03/02/2024 18:28:45 -81.14, 25.90 87.72 03/02/2024 18:27:49 -81.14, 25.76 87.67 2.40 56
217 03/02/2024 19:19:31 81.14,-167.12 92.32 03/02/2024 19:18:34 81.14,-166.95 92.33 2.92 57
218 03/02/2024 20:10:16 -81.14, 0.51 87.74 03/02/2024 20:09:19 -81.14, 0.34 87.69 2.96 57
219 03/02/2024 21:01:02 81.14, 167.50 92.29 03/02/2024 21:00:04 81.14, 167.64 92.30 2.31 58
220 03/02/2024 21:51:48 -81.14, -25.25 87.72 03/02/2024 21:50:49 -81.14, -25.07 87.71 3.05 59
221 03/02/2024 22:42:33 81.14, 142.12 92.26 03/02/2024 22:41:34 81.14, 142.22 92.28 1.71 59
222 03/02/2024 23:33:19 -81.14, -50.64 87.75 03/02/2024 23:32:19 -81.14, -50.49 87.73 2.48 60
223 03/03/2024 00:24:04 81.14, 116.74 92.24 03/03/2024 00:23:04 81.14, 116.80 92.26 1.15 60
224 03/03/2024 01:14:50 -81.14, -76.02 87.77 03/03/2024 01:13:49 -81.14, -75.91 87.75 1.93 61
225 03/03/2024 02:05:35 81.14, 91.35 92.21 03/03/2024 02:04:34 81.14, 91.38 92.24 0.70 61
226 03/03/2024 02:56:21 -81.14,-101.40 87.80 03/03/2024 02:55:19 -81.14,-101.33 87.77 1.43 62
227 03/03/2024 03:47:06 81.14, 65.97 92.18 03/03/2024 03:46:04 81.14, 65.96 92.22 0.68 62
228 03/03/2024 04:37:51 -81.14,-126.40 87.88 03/03/2024 04:36:48 -81.13,-126.37 87.85 0.99 63
229 03/03/2024 05:28:37 81.14, 40.59 92.16 03/03/2024 05:27:34 81.14, 40.54 92.20 1.11 63
230 03/03/2024 06:19:22 -81.14,-151.78 87.90 03/03/2024 06:18:18 -81.13,-151.79 87.87 0.66 64
231 03/03/2024 07:10:07 81.14, 15.59 92.08 03/03/2024 07:09:03 81.13, 15.50 92.12 1.59 64
232 03/03/2024 08:00:53 -81.14,-177.17 87.93 03/03/2024 07:59:48 -81.13,-177.20 87.89 0.78 65
233 03/03/2024 08:51:38 81.14, -9.79 92.05 03/03/2024 08:50:33 81.14, -9.92 92.10 2.13 65
234 03/03/2024 09:42:24 -81.14, 157.45 87.96 03/03/2024 09:41:18 -81.14, 157.38 87.91 1.24 66
235 03/03/2024 10:33:09 81.14, -35.18 92.03 03/03/2024 10:32:03 81.14, -35.33 92.08 2.70 66
236 03/03/2024 11:23:55 -81.14, 132.06 87.98 03/03/2024 11:22:48 -81.14, 131.96 87.93 1.79 67
237 03/03/2024 12:14:40 81.14, -60.56 92.00 03/03/2024 12:13:33 81.14, -60.75 92.06 3.30 67
238 03/03/2024 13:05:26 -81.14, 106.68 88.01 03/03/2024 13:04:18 -81.14, 106.54 87.96 2.36 68
239 03/03/2024 13:56:12 81.14, -86.33 92.02 03/03/2024 13:55:03 81.14, -86.17 92.04 2.73 69
240 03/03/2024 14:46:57 -81.14, 81.30 88.04 03/03/2024 14:45:48 -81.14, 81.13 87.98 2.95 69
241 03/03/2024 15:37:43 81.14,-111.71 92.00 03/03/2024 15:36:33 81.14,-111.59 92.02 2.15 70
242 03/03/2024 16:28:28 -81.14, 55.91 88.06 03/03/2024 16:27:17 -81.13, 56.08 88.05 3.10 71
243 03/03/2024 17:19:14 81.14,-137.10 91.97 03/03/2024 17:18:03 81.14,-137.01 92.00 1.62 71
244 03/03/2024 18:09:59 -81.14, 30.53 88.09 03/03/2024 18:08:47 -81.13, 30.67 88.07 2.50 72
245 03/03/2024 19:00:44 81.14,-162.09 91.89 03/03/2024 18:59:32 81.13,-162.05 91.92 1.12 72
246 03/03/2024 19:51:30 -81.14, 5.15 88.12 03/03/2024 19:50:17 -81.13, 5.25 88.09 1.90 73
247 03/03/2024 20:42:15 81.14, 172.52 91.87 03/03/2024 20:41:02 81.13, 172.53 91.90 0.68 73
248 03/03/2024 21:33:01 -81.14, -20.24 88.15 03/03/2024 21:31:47 -81.13, -20.17 88.12 1.30 74
249 03/03/2024 22:23:46 81.14, 147.14 91.84 03/03/2024 22:22:32 81.13, 147.11 91.88 0.67 74
250 03/03/2024 23:14:32 -81.14, -45.62 88.17 03/03/2024 23:13:17 -81.13, -45.59 88.14 0.72 75
251 03/04/2024 00:05:17 81.14, 121.75 91.81 03/04/2024 00:04:02 81.14, 121.69 91.86 1.11 75



Historial Predications of SNOs between FY3D and NOAA-20
